Location: Luxembourg
(49.6117°N, 6.1300°E)
Time: 10:20:48
(UTC+01:00)

X-37B - Visible Passes

Search period start: 21 January 2021 00:00
Search period end: 31 January 2021 00:00
Orbit: 384 x 390 km, 45.0° (Epoch: 02 January)

Date Brightness Start Highest point End Pass type
(mag) Time Alt. Az. Time Alt. Az. Time Alt. Az.
21 Jan 2.2 19:07:09 10° SW 19:09:46 24° SSE 19:09:46 24° SSE visible
22 Jan 2.7 18:09:16 10° SSW 18:11:29 18° SSE 18:13:44 10° ESE visible
22 Jan 2.8 19:44:40 10° WSW 19:46:16 23° SW 19:46:16 23° SW visible
23 Jan 2.0 18:46:25 10° SW 18:49:15 30° SSE 18:50:28 22° SE visible
23 Jan 4.1 20:22:34 10° WSW 20:22:45 11° WSW 20:22:45 11° WSW visible
24 Jan 2.4 17:48:18 10° SW 17:50:56 24° SSE 17:53:35 10° ESE visible
24 Jan 1.8 19:24:11 10° WSW 19:26:56 35° S 19:26:56 35° S visible
25 Jan 1.8 18:25:50 10° WSW 18:28:46 34° S 18:31:09 14° ESE visible
25 Jan 3.3 20:02:12 10° WSW 20:03:26 19° WSW 20:03:26 19° WSW visible
26 Jan 1.9 19:03:44 10° WSW 19:06:40 34° S 19:07:40 27° SSE visible
27 Jan 1.9 18:05:20 10° WSW 18:08:18 36° S 18:11:16 10° ESE visible
27 Jan 2.6 19:41:53 10° WSW 19:44:15 23° SSW 19:44:15 23° SSW visible
28 Jan 2.3 18:43:21 10° WSW 18:46:11 29° SSW 18:48:37 12° SE visible
29 Jan 3.1 19:21:47 10° WSW 19:23:56 17° SSW 19:25:23 13° S visible
30 Jan 2.8 18:23:04 10° WSW 18:25:39 23° SSW 18:28:15 10° SE visible
